Oak Ridge, TN

4:04 AM EST on November 20, 2019 (GMT -0500)
Oak Ridge

Weather History for KOQT - September, 2019

Change the Weather History Date:

Thursday, September 5, 2019

  Actual Average (WUND) Record (WUND)
Temperature  
Mean Temperature 78 °F -  
Max Temperature 90 °F - - (-1)
Min Temperature 68 °F - - (-1)
Cooling Degree Days 13    
Growing Degree Days 28 (Base 50)    
Moisture  
Dew Point 64 °F    
Average Humidity 65    
Maximum Humidity 91    
Minimum Humidity 40    
Precipitation  
Precipitation 0.00 in - - ()
Sea Level Pressure  
Sea Level Pressure 29.94 in    
Wind  
Wind Speed 1 mph ()    
Max Wind Speed 8 mph    
Max Gust Speed -    
Visibility 9.6 miles    
Events      
Averages and records for this station are not official NWS values.
T = Trace of Precipitation, MM = Missing Value Source: Averaged Metar Reports

Daily Weather History Graph

Daily Weather History Graph

Search for Another Location

Airport or City:

Astronomy

Sep. 05, 2019 Rise Set
Actual Time 7:11 AM EDT 7:59 PM EDT
Civil Twilight 6:45 AM EDT 8:25 PM EDT
Nautical Twilight 6:14 AM EDT 8:55 PM EDT
Astronomical Twilight 5:43 AM EDT 9:27 PM EDT
Moon 2:04 PM EDT (9/5) No Moon Set
Length of Visible Light 13h 39m
Length of Day
12h 47m
Waxing Crescent, 45% of the Moon is Illuminated
Sep 5
Waxing Crescent
Sep 5
First Quarter
Sep 14
Full
Sep 21
Last Quarter
Sep 28
New

Hourly Weather History & Observations

Time (EDT) Temp. Heat Index Dew Point Humidity Pressure Visibility Wind Dir Wind Speed Gust Speed Precip Events Conditions
12:53 AM 75.0 °F - 70.0 °F 84% 29.95 in 10.0 mi Calm Calm - N/A   Clear
2:53 AM 73.0 °F - 70.0 °F 90% 29.95 in 10.0 mi Calm Calm - N/A   Clear
3:53 AM 72.0 °F - 69.1 °F 91% 29.94 in 9.0 mi Calm Calm - N/A   Clear
4:53 AM 72.0 °F - 68.0 °F 87% 29.94 in 10.0 mi Calm Calm - N/A   Clear
5:53 AM 70.0 °F - 66.9 °F 90% 29.94 in 8.0 mi Calm Calm - N/A   Clear
6:53 AM 69.1 °F - 66.0 °F 90% 29.95 in 7.0 mi Calm Calm - N/A   Clear
7:53 AM 68.0 °F - 64.9 °F 90% 29.96 in 7.0 mi Calm Calm - N/A   Clear
8:53 AM 73.0 °F - 66.9 °F 81% 29.97 in 10.0 mi Calm Calm - N/A   Clear
9:53 AM 78.1 °F - 68.0 °F 71% 29.97 in 10.0 mi Calm Calm - N/A   Clear
10:53 AM 82.9 °F 85.4 °F 66.9 °F 58% 29.96 in 10.0 mi Variable 3.5 mph - N/A   Clear
11:53 AM 86.0 °F 88.2 °F 66.0 °F 51% 29.95 in 10.0 mi North 5.8 mph - N/A   Clear
12:53 PM 87.1 °F 88.3 °F 64.0 °F 46% 29.94 in 10.0 mi Variable 5.8 mph - N/A   Partly Cloudy
1:53 PM 88.0 °F 87.9 °F 61.0 °F 40% 29.93 in 10.0 mi ENE 8.1 mph - N/A   Scattered Clouds
2:53 PM 87.1 °F 87.0 °F 61.0 °F 41% 29.92 in 10.0 mi Variable 4.6 mph - N/A   Scattered Clouds
3:53 PM 88.0 °F 87.9 °F 61.0 °F 40% 29.91 in 10.0 mi Variable 6.9 mph - N/A   Clear
4:53 PM 87.1 °F 87.0 °F 61.0 °F 41% 29.91 in 10.0 mi Variable 4.6 mph - N/A   Partly Cloudy
5:53 PM 87.1 °F 87.0 °F 61.0 °F 41% 29.91 in 10.0 mi Variable 3.5 mph - N/A   Clear
6:53 PM 84.0 °F 84.0 °F 60.1 °F 44% 29.92 in 10.0 mi Variable 4.6 mph - N/A   Clear
7:53 PM 81.0 °F 81.6 °F 60.1 °F 49% 29.94 in 10.0 mi Calm Calm - N/A   Clear
8:53 PM 75.9 °F - 60.1 °F 58% 29.94 in 10.0 mi Calm Calm - N/A   Clear
9:53 PM 72.0 °F - 61.0 °F 68% 29.96 in 10.0 mi Calm Calm - N/A   Clear
10:53 PM 70.0 °F - 62.1 °F 76% 29.96 in 10.0 mi Calm Calm - N/A   Clear
11:53 PM 69.1 °F - 61.0 °F 75% 29.95 in 10.0 mi Calm Calm - N/A   Clear